Find Starlink 2635

NORAD ID: 48355 Int'l Des: 2021-038 Owner: SPXS Country: US Constellation: starlink operational
LEOCIRCULAR

現在のビュー

3D地球を読み込み中...

About Starlink 2635

Starlink 2635 (NORAD 48355) is a starlink constellation satellite (v1.0) launched May 4, 2021 by SPXS of US. It operates in LEO, CIRCULAR orbit with a mass of 260.00 kg.

次回通過

Passes for default location (London). Set your location on the main map for personalized predictions.

高度履歴

Loading altitude history...

軌道要素

1 48355U 21038C 26246.41188475 .00000990 00000-0 43648-4 0 9994
2 48355 53.1592 251.0505 0001108 73.2386 286.8737 15.31698626294316
Epoch: Sep 3, 2026 • Age: 16 hours

現在のステータス

高度 470.5 km
遠地点 / 近地点 N/A
速度 7.63 km/s
衛星直下点 14.92°N, 108.14°W
打ち上げ日 May 4, 2021
運用期間 5.3 years
タイプ internet

技術仕様

分類 Payload
質量 260.00 kg
乾燥質量 248.00 kg
総質量 260.00 kg
長さ 0.20 m
直径 2.80 m
スパン 9.00 m
形状 Box + pan
製造者 SPXS
バスタイプ Starlink
フェーズステータス In Orbit
所有者/国 SPXS/US

Most Searched